Voltar ao catálogo

ARVAKER-2

AtivoCiênciaSSO
NORAD 64567·PAYLOAD·🇳🇴 Norway

Lançado Jun 23, 2025 de Vandenberg Space Force Base

Loading…

Próximas Passagens (próximas 24 horas)

TLE

AtualizadoSource: Space-Track

Época: Sep 14, 2026, 14:20 UTC

1 64567U 25135AR  26257.59753688  .00001860  00000-0  18054-3 0  9993
2 64567  97.7810  10.8130 0002192  56.3990 303.7438 14.93851306 67226

Acompanhe ARVAKER-2 em tempo real com AllMySat

Download on the App Store